Location: Morisset
(33.1080°S, 151.4871°E)
Time: 08:01:31
(UTC+00:00)

Cosmos 1626 - Pass Details

Date: 29 October 2020
Orbit: 491 x 493 km, 82.5° (Epoch: 27 November)

Event Time Altitude Azimuth Distance (km) Brightness Sun altitude
Rises 17:01:48 0° 180° (S) 2,614 6.3 -22.4°
Reaches altitude 10° 17:04:00 10° 173° (S) 1,721 5.4 -22.1°
Maximum altitude 17:07:38 46° 99° (E) 683 3.1 -21.4°
Enters shadow 17:10:44 13° 27° (NNE) 1,504 4.5 -20.9°
